Meteo pe oră la Czyczkowy

Astăzi, 15 Aprilie, Joi

Timp Temperatura Precipitaţii Vânt Presiune Umiditate
00:00 0°C° 0 mm 4 m/s 755 mmHg 77%
01:00 0°C° 0 mm 4 m/s 755 mmHg 79%
02:00 0°C° 0 mm 4 m/s 755 mmHg 79%
03:00 0°C° 0 mm 5 m/s 755 mmHg 79%
04:00 0°C° 0 mm 5 m/s 755 mmHg 80%
05:00 0°C° 0 mm 5 m/s 755 mmHg 77%
06:00 0°C° 0 mm 5 m/s 755 mmHg 75%
07:00 -1°C° 0 mm 6 m/s 755 mmHg 72%
08:00 +1°C° 0.1 mm 6 m/s 754 mmHg 73%
09:00 +2°C° 0.1 mm 6 m/s 754 mmHg 74%
10:00 +2°C° 0.1 mm 7 m/s 754 mmHg 75%
11:00 +2°C° 0 mm 7 m/s 754 mmHg 74%
12:00 +3°C° 0 mm 7 m/s 754 mmHg 73%
13:00 +3°C° 0 mm 7 m/s 754 mmHg 73%
14:00 +3°C° 0.1 mm 6 m/s 754 mmHg 74%
15:00 +3°C° 0.1 mm 6 m/s 753 mmHg 76%
16:00 +3°C° 0.1 mm 6 m/s 753 mmHg 78%
17:00 +3°C° 0.1 mm 6 m/s 753 mmHg 76%
18:00 +3°C° 0.1 mm 5 m/s 753 mmHg 74%
19:00 +3°C° 0.1 mm 5 m/s 753 mmHg 73%
20:00 +2°C° 0 mm 5 m/s 753 mmHg 74%
21:00 +2°C° 0 mm 5 m/s 753 mmHg 75%
22:00 +3°C° 0 mm 4 m/s 753 mmHg 76%
23:00 +1°C° 0 mm 4 m/s 753 mmHg 78%

Mâine, 16 Aprilie, Vineri

Timp Temperatura Precipitaţii Vânt Presiune Umiditate
00:00 +1°C° 0 mm 4 m/s 753 mmHg 80%
01:00 0°C° 0 mm 4 m/s 753 mmHg 82%
02:00 +1°C° 0 mm 4 m/s 753 mmHg 82%
03:00 +1°C° 0 mm 4 m/s 752 mmHg 82%
04:00 +1°C° 0 mm 4 m/s 752 mmHg 81%
05:00 +1°C° 0 mm 4 m/s 752 mmHg 81%
06:00 +1°C° 0 mm 4 m/s 752 mmHg 80%
07:00 +1°C° 0 mm 4 m/s 752 mmHg 80%
08:00 +3°C° 0 mm 4 m/s 752 mmHg 77%
09:00 +3°C° 0 mm 5 m/s 752 mmHg 75%
10:00 +3°C° 0 mm 5 m/s 752 mmHg 73%
11:00 +3°C° 0 mm 5 m/s 752 mmHg 75%
12:00 +4°C° 0 mm 4 m/s 752 mmHg 78%
13:00 +4°C° 0 mm 4 m/s 752 mmHg 81%
14:00 +4°C° 0.2 mm 4 m/s 752 mmHg 82%
15:00 +4°C° 0.2 mm 4 m/s 752 mmHg 84%
16:00 +4°C° 0.2 mm 3 m/s 752 mmHg 85%
17:00 +3°C° 0.4 mm 3 m/s 752 mmHg 88%
18:00 +3°C° 0.4 mm 3 m/s 752 mmHg 91%
19:00 +3°C° 0.4 mm 3 m/s 753 mmHg 94%
20:00 +3°C° 0.1 mm 3 m/s 753 mmHg 94%
21:00 +4°C° 0.1 mm 2 m/s 753 mmHg 95%
22:00 +4°C° 0.1 mm 2 m/s 753 mmHg 96%
23:00 +4°C° 0 mm 2 m/s 753 mmHg 97%

Poimâine, 17 Aprilie, Sâmbătă

Timp Temperatura Precipitaţii Vânt Presiune Umiditate
00:00 +4°C° 0 mm 2 m/s 752 mmHg 97%
01:00 +4°C° 0 mm 2 m/s 752 mmHg 98%
02:00 +4°C° 0 mm 2 m/s 752 mmHg 97%
03:00 +4°C° 0 mm 2 m/s 752 mmHg 97%
04:00 +5°C° 0 mm 2 m/s 753 mmHg 96%
05:00 +5°C° 0 mm 2 m/s 753 mmHg 95%
06:00 +4°C° 0 mm 3 m/s 752 mmHg 95%
07:00 +5°C° 0 mm 3 m/s 752 mmHg 94%
08:00 +5°C° 0.1 mm 3 m/s 752 mmHg 93%
09:00 +7°C° 0.1 mm 3 m/s 752 mmHg 91%
10:00 +8°C° 0.1 mm 3 m/s 752 mmHg 90%
11:00 +8°C° 0.1 mm 3 m/s 752 mmHg 87%
12:00 +9°C° 0.1 mm 3 m/s 752 mmHg 84%
13:00 +10°C° 0.1 mm 3 m/s 752 mmHg 80%
14:00 +10°C° 0.1 mm 3 m/s 752 mmHg 81%
15:00 +10°C° 0.1 mm 3 m/s 752 mmHg 81%
16:00 +10°C° 0.1 mm 3 m/s 752 mmHg 82%
17:00 +10°C° 0.2 mm 3 m/s 752 mmHg 85%
18:00 +9°C° 0.2 mm 3 m/s 753 mmHg 88%
19:00 +8°C° 0.2 mm 3 m/s 753 mmHg 91%
20:00 +8°C° 0 mm 2 m/s 753 mmHg 93%
21:00 +7°C° 0 mm 2 m/s 753 mmHg 94%
22:00 +6°C° 0 mm 2 m/s 753 mmHg 96%
23:00 +6°C° 0 mm 2 m/s 753 mmHg 95%

18 Aprilie, Duminică

Timp Temperatura Precipitaţii Vânt Presiune Umiditate
00:00 +6°C° 0 mm 2 m/s 753 mmHg 95%
01:00 +6°C° 0 mm 2 m/s 753 mmHg 95%
02:00 +6°C° 0.7 mm 2 m/s 753 mmHg 96%
03:00 +7°C° 0.7 mm 1 m/s 752 mmHg 97%
04:00 +7°C° 0.7 mm 1 m/s 752 mmHg 97%
05:00 +8°C° 1 mm 1 m/s 752 mmHg 97%
06:00 +8°C° 1 mm 1 m/s 752 mmHg 96%
07:00 +8°C° 1 mm 1 m/s 752 mmHg 95%
08:00 +9°C° 0.1 mm 1 m/s 752 mmHg 93%
09:00 +9°C° 0.1 mm 1 m/s 752 mmHg 91%
10:00 +10°C° 0.1 mm 1 m/s 752 mmHg 88%
11:00 +10°C° 0.3 mm 2 m/s 752 mmHg 82%
12:00 +12°C° 0.3 mm 2 m/s 752 mmHg 75%
13:00 +12°C° 0.3 mm 3 m/s 752 mmHg 68%
14:00 +11°C° 0.2 mm 3 m/s 752 mmHg 67%
15:00 +11°C° 0.2 mm 3 m/s 751 mmHg 67%
16:00 +11°C° 0.2 mm 3 m/s 751 mmHg 66%
17:00 +10°C° 0 mm 2 m/s 752 mmHg 69%
18:00 +9°C° 0 mm 2 m/s 752 mmHg 73%
19:00 +9°C° 0 mm 2 m/s 752 mmHg 76%
20:00 +8°C° 0 mm 2 m/s 752 mmHg 79%
21:00 +8°C° 0 mm 1 m/s 752 mmHg 81%
22:00 +8°C° 0 mm 1 m/s 752 mmHg 84%
23:00 +8°C° 0 mm 1 m/s 752 mmHg 85%

19 Aprilie, Luni

Timp Temperatura Precipitaţii Vânt Presiune Umiditate
00:00 +7°C° 0 mm 1 m/s 752 mmHg 86%
01:00 +7°C° 0 mm 1 m/s 752 mmHg 87%
02:00 +6°C° 0 mm 2 m/s 752 mmHg 86%
03:00 +6°C° 0 mm 2 m/s 752 mmHg 86%
04:00 +6°C° 0 mm 2 m/s 752 mmHg 86%
05:00 +7°C° 0 mm 2 m/s 752 mmHg 83%
06:00 +7°C° 0 mm 2 m/s 752 mmHg 80%
07:00 +8°C° 0 mm 2 m/s 752 mmHg 77%
08:00 +10°C° 0 mm 3 m/s 751 mmHg 69%
09:00 +11°C° 0 mm 3 m/s 751 mmHg 61%
10:00 +12°C° 0 mm 4 m/s 751 mmHg 53%
11:00 +13°C° 0 mm 4 m/s 751 mmHg 52%
12:00 +13°C° 0 mm 4 m/s 750 mmHg 51%
13:00 +13°C° 0 mm 4 m/s 750 mmHg 49%
14:00 +13°C° 0.1 mm 4 m/s 750 mmHg 53%
15:00 +13°C° 0.1 mm 4 m/s 750 mmHg 56%
16:00 +13°C° 0.1 mm 4 m/s 749 mmHg 59%
17:00 +12°C° 0.1 mm 4 m/s 749 mmHg 63%
18:00 +11°C° 0.1 mm 4 m/s 749 mmHg 68%
19:00 +10°C° 0.1 mm 3 m/s 749 mmHg 72%
20:00 +9°C° 0 mm 3 m/s 749 mmHg 73%
21:00 +9°C° 0 mm 3 m/s 748 mmHg 74%
22:00 +9°C° 0 mm 3 m/s 748 mmHg 75%
23:00 +8°C° 0 mm 3 m/s 748 mmHg 77%

20 Aprilie, Marţi

Timp Temperatura Precipitaţii Vânt Presiune Umiditate
00:00 +8°C° 0 mm 3 m/s 747 mmHg 80%
01:00 +7°C° 0 mm 3 m/s 747 mmHg 82%
02:00 +7°C° 0 mm 3 m/s 747 mmHg 84%
03:00 +7°C° 0 mm 3 m/s 746 mmHg 85%
04:00 +7°C° 0 mm 3 m/s 746 mmHg 87%
05:00 +8°C° 0 mm 3 m/s 746 mmHg 86%
06:00 +8°C° 0 mm 3 m/s 745 mmHg 86%
07:00 +8°C° 0 mm 4 m/s 745 mmHg 85%
08:00 +10°C° 0.1 mm 4 m/s 745 mmHg 78%
09:00 +11°C° 0.1 mm 4 m/s 745 mmHg 71%
10:00 +12°C° 0.1 mm 5 m/s 744 mmHg 64%
11:00 +12°C° 0.1 mm 5 m/s 744 mmHg 66%
12:00 +10°C° 0.1 mm 5 m/s 744 mmHg 69%
13:00 +10°C° 0.1 mm 5 m/s 744 mmHg 71%
14:00 +11°C° 0 mm 4 m/s 743 mmHg 71%
15:00 +11°C° 0 mm 4 m/s 743 mmHg 70%
16:00 +11°C° 0 mm 4 m/s 743 mmHg 70%
17:00 +10°C° 0 mm 4 m/s 743 mmHg 72%
18:00 +10°C° 0 mm 3 m/s 743 mmHg 74%
19:00 +9°C° 0 mm 3 m/s 743 mmHg 77%
20:00 +9°C° 0 mm 3 m/s 742 mmHg 79%
21:00 +8°C° 0 mm 3 m/s 742 mmHg 81%
22:00 +8°C° 0 mm 3 m/s 742 mmHg 83%
23:00 +7°C° 0 mm 3 m/s 742 mmHg 84%
Arată mai mult

Formular de consimțământ

Meteoprog și furnizorii noștri de servicii pot stoca și accesa date personale, precum cookies, identificatori de dispozitiv sau alte tehnologii similare pe dispozitivul dumneavoastră și procesa astfel de date pentru a personaliza conținutul și reclamele, dar și pentru a oferi caracteristici de social media și pentru a analiza traficul.

  • Stocarea și/sau accesarea informațiilor pe dispozitivul dumneavoastră

    Cookies, identificatori de dispozitiv sau alte informații pot fi stocate sau accesate pe dispozitiv în scopurile indicate mai sus.

  • Reclame și conținut personalizat, evaluarea reclamelor și a conținutului, informații despre audiențe și dezvoltarea produselor

    Reclamele și conținutul pot fi personalizate pe baza unui profil. Pot fi adăugate date suplimentare pentru a personaliza mai bine reclamele și conținutul. Performanța reclamelor și conținutului poate fi măsurată. Pot fi obținute informații despre utilizatorii care au văzut reclamele și conținutul. Aceste date pot fi utilizate pentru a dezvolta sau îmbunătăți experiența utilizatorilor, sistemele și software-ul.

Dând clic pe ‘Sunt de acord’, permiteți utilizarea cookie-urilor menționate, a identificatorilor de dispozitiv, balizelor web sau altor tehnologii similare. Setările pot fi modificate din browser-ul dispozitivului dumneavoastră.

În anumite scopuri, interesele legitime pot prima asupra consimțământului. Puteți citi mai multe informații în acest sens în Politica privind Confidențialitatea Datelor și Cookie.